User: anonymous   Login
Location: Irma
(52.9170°N, 111.2330°W)
Time: 06:10:18
(UTC-06:00)
Language:

Meteor 1-24 Rocket - Orbit

View from above orbital plane
View from above orbital plane
View from above satellite
View from above satellite

Ground track
Ground track

The orbit data is extracted from the following two-line orbital elements,

1  8800U 76032B   17085.75616240 +.00000257 +00000-0 +13207-3 0  9996
2  8800 081.2496 297.5303 0096202 059.3627 301.6985 14.10090723106576
Epoch (UTC): 26 March 2017 18:08:52
Eccentricity: 0.0096202
inclination: 81.2496°
perigee height: 789 km
apogee height: 928 km
right ascension of ascending node: 297.5303°
argument of perigee: 59.3627°
revolutions per day: 14.10090723
mean anomaly at epoch: 301.6985°
orbit number at epoch: 10657

The dashed part of the orbit path shows where the satellite is in the earth's shadow,  

DLR